This demonstration page uses our WeatherBlox Daily Observations layout. Learn more.

39.92423, -83.80882

Hourly Observations for September 7, 2018

Temp ( °F °C ) Dew Point ( °F °C ) Humidity (%) Winds ( mph kmh ) Pressure ( in mb ) Visibility ( mi km ) Precip ( " mm )
12:47 am 00:47 Partly Cloudy 72 22 72 22 100 100 NE 6 9 30.18 1022 10 16.0934 0 0
12:56 am 00:56 Partly Cloudy 71 21.7 71 21.7 100 100 NE 6 9 30.2 1023 10 16.0934 0 0
1:03 am 01:03 Mostly Cloudy 72 22 72 22 100 100 NE 7 11 30.18 1022 10 16.0934 0 0
1:23 am 01:23 Mostly Cloudy 70 21 70 21 100 100 NE 9 15 30.18 1022 10 16.0934 0 0
1:35 am 01:35 Partly Cloudy 70 21 70 21 100 100 ENE 7 11 30.18 1022 10 16.0934 0 0
1:56 am 01:56 Clear 70 21.1 70 21.1 100 100 NE 6 9 30.19 1023 10 16.0934 0 0
2:56 am 02:56 Cloudy 69 20.6 69 20.6 100 100 NNE 6 9 30.19 1022 10 16.0934 0 0
3:48 am 03:48 Cloudy 70 21 70 21 100 100 NE 6 9 30.18 1022 10 16.0934 0 0
3:56 am 03:56 Cloudy 69 20.6 69 20.6 100 100 NE 6 9 30.2 1023 10 16.0934 0 0
4:56 am 04:56 Cloudy 69 20.6 69 20.6 100 100 NNE 7 11 30.18 1022 10 16.0934 0 0
5:30 am 05:30 Mostly Cloudy 68 20 68 20 100 100 NE 7 11 30.18 1022 10 16.0934 0 0
5:56 am 05:56 Partly Cloudy 68 20 68 20 100 100 NE 6 9 30.19 1022 10 16.0934 0 0
6:56 am 06:56 Cloudy 68 20 68 20 100 100 NE 5 7 30.19 1022 10 16.0934 0 0
7:56 am 07:56 Cloudy 68 20 68 20 100 100 NNE 7 11 30.19 1022 10 16.0934 0 0
8:56 am 08:56 Mostly Cloudy 69 20.6 68 20 96 96 ENE 9 15 30.19 1022 10 16.0934 0 0
9:56 am 09:56 Mostly Cloudy 71 21.7 69 20.6 94 94 ENE 8 13 30.19 1022 10 16.0934 0 0
10:56 am 10:56 Mostly Cloudy 74 23.3 70 21.1 88 88 E 6 9 30.19 1022 10 16.0934 0 0
11:56 am 11:56 Cloudy 75 23.9 70 21.1 84 84 NE 6 9 30.18 1022 10 16.0934 0 0
12:27 pm 12:27 Cloudy 75 24 72 22 89 89 E 7 11 30.15 1021 10 16.0934 0 0
12:48 pm 12:48 Cloudy 77 25 72 22 83 83 NE 6 9 30.15 1021 10 16.0934 0 0
12:56 pm 12:56 Mostly Cloudy 77 25 71 21.7 82 82 NNE 7 11 30.17 1022 10 16.0934 0 0
1:56 pm 13:56 Cloudy 77 25 71 21.7 82 82 NE 8 13 30.15 1021 10 16.0934 0 0
2:56 pm 14:56 Cloudy with Light Rain 76 24.4 70 21.1 82 82 NE 7 11 30.14 1021 10 16.0934 0 0.0254
3:56 pm 15:56 Cloudy 76 24.4 70 21.1 82 82 NE 9 15 30.12 1020 10 16.0934 0 0.0254
4:56 pm 16:56 Cloudy 73 22.8 69 20.6 87 87 NNE 14 22 30.12 1020 10 16.0934 0 0
5:56 pm 17:56 Cloudy with Rain 71 21.7 71 21.7 100 100 NNE 12 19 30.12 1020 9 14.48406 0.01 0.254
6:56 pm 18:56 Cloudy 71 21.7 70 21.1 96 96 NNE 10 17 30.11 1020 10 16.0934 0.02 0.508
7:10 pm 19:10 Cloudy 70 21 70 21 100 100 NNE 10 17 30.09 1019 10 16.0934 0 0
7:28 pm 19:28 Cloudy 70 21 70 21 100 100 NNE 12 19 30.09 1019 10 16.0934 0 0
7:56 pm 19:56 Cloudy 70 21.1 69 20.6 97 97 NNE 12 19 30.12 1020 10 16.0934 0 0
8:56 pm 20:56 Cloudy 69 20.6 69 20.6 100 100 NE 13 20 30.12 1020 10 16.0934 0 0
9:56 pm 21:56 Cloudy 68 20 68 20 100 100 NE 10 17 30.13 1020 10 16.0934 0 0
10:56 pm 22:56 Cloudy with Light Rain 68 20 67 19.4 96 96 NE 13 20 30.13 1020 10 16.0934 0 0.0254
11:56 pm 23:56 Cloudy with Light Rain 67 19.4 67 19.4 100 100 NE 10 17 30.13 1020 6 9.65604 0.05 1.27

Powered by AerisWeather